N505EC KVNY-KPSP

Flight info

Callsign N505EC
Flight time 0h 31m
Altitude 19000
Route NUAL1 PMD V137 PSP
Aircraft CL60/M-SBDE1E2E3FGHIJ4J5J7M3RWXYZ/LB1V1D1

Departure

Time 2026-05-06 09:10
Airport Van Nuys Airport (KVNY)

Arrival

Time 2026-05-06 09:41
Airport Palm Springs International Airport (KPSP)
Time Latitude Longitude Altitude Speed Heading
2026-05-06 08:33 34.20876 -118.48745 780 ft 0 kts 179°
2026-05-06 09:02 34.20874 -118.48745 780 ft 1 kts 185°
2026-05-06 09:03 34.20862 -118.48759 780 ft 4 kts 257°
2026-05-06 09:03 34.20863 -118.48807 780 ft 4 kts 296°
2026-05-06 09:03 34.20902 -118.48827 781 ft 7 kts 358°
2026-05-06 09:03 34.20957 -118.48831 782 ft 8 kts 355°
2026-05-06 09:04 34.21024 -118.48837 784 ft 10 kts 356°
2026-05-06 09:04 34.21108 -118.48844 785 ft 13 kts 356°
2026-05-06 09:04 34.21201 -118.48855 788 ft 13 kts 355°
2026-05-06 09:04 34.21302 -118.48865 790 ft 15 kts 353°
2026-05-06 09:05 34.21413 -118.48877 792 ft 16 kts 356°
2026-05-06 09:05 34.21524 -118.48888 794 ft 15 kts 354°
2026-05-06 09:05 34.21632 -118.48911 796 ft 16 kts 347°
2026-05-06 09:05 34.21752 -118.48938 798 ft 18 kts 353°
2026-05-06 09:06 34.21854 -118.48950 800 ft 6 kts 353°
2026-05-06 09:06 34.21891 -118.48982 800 ft 8 kts 278°
2026-05-06 09:06 34.21889 -118.49024 800 ft 0 kts 264°
2026-05-06 09:06 34.21887 -118.49038 800 ft 0 kts 264°
2026-05-06 09:07 34.21887 -118.49040 800 ft 0 kts 264°
2026-05-06 09:07 34.21881 -118.49104 800 ft 5 kts 257°
2026-05-06 09:08 34.21839 -118.49119 800 ft 8 kts 172°
2026-05-06 09:08 34.21837 -118.49119 800 ft 0 kts 173°
2026-05-06 09:09 34.21835 -118.49119 800 ft 0 kts 173°
2026-05-06 09:09 34.21580 -118.49094 796 ft 91 kts 174°
2026-05-06 09:09 34.20629 -118.48980 955 ft 168 kts 173°
2026-05-06 09:10 34.19416 -118.48751 1405 ft 184 kts 168°
2026-05-06 09:10 34.18158 -118.47989 1871 ft 223 kts 135°
2026-05-06 09:10 34.17326 -118.46505 3316 ft 218 kts 122°
2026-05-06 09:10 34.16484 -118.44943 4346 ft 235 kts 124°
2026-05-06 09:11 34.15566 -118.43296 4841 ft 237 kts 124°
2026-05-06 09:11 34.14655 -118.41637 5041 ft 237 kts 120°
2026-05-06 09:11 34.14111 -118.39717 5073 ft 253 kts 96°
2026-05-06 09:11 34.14315 -118.37584 5074 ft 259 kts 69°
2026-05-06 09:12 34.15129 -118.35605 5246 ft 281 kts 57°
2026-05-06 09:12 34.16261 -118.33676 6744 ft 284 kts 52°
2026-05-06 09:12 34.17384 -118.31854 8587 ft 274 kts 52°
2026-05-06 09:12 34.18492 -118.30050 10038 ft 277 kts 52°
2026-05-06 09:13 34.19647 -118.28172 10858 ft 283 kts 52°
2026-05-06 09:13 34.20821 -118.26260 11441 ft 283 kts 52°
2026-05-06 09:13 34.21999 -118.24343 11990 ft 291 kts 52°
2026-05-06 09:13 34.23216 -118.22362 12532 ft 300 kts 52°
2026-05-06 09:14 34.24471 -118.20316 13086 ft 304 kts 52°
2026-05-06 09:14 34.25737 -118.18253 13641 ft 306 kts 52°
2026-05-06 09:14 34.27003 -118.16188 14189 ft 309 kts 52°
2026-05-06 09:14 34.28287 -118.14091 14742 ft 312 kts 52°
2026-05-06 09:15 34.29577 -118.11986 15295 ft 314 kts 52°
2026-05-06 09:15 34.30895 -118.09833 15852 ft 317 kts 52°
2026-05-06 09:15 34.32200 -118.07700 16403 ft 320 kts 52°
2026-05-06 09:15 34.33535 -118.05517 16961 ft 322 kts 53°
2026-05-06 09:16 34.34863 -118.03343 17510 ft 325 kts 53°
2026-05-06 09:16 34.36218 -118.01125 18064 ft 328 kts 53°
2026-05-06 09:16 34.37564 -117.98920 18617 ft 331 kts 53°
2026-05-06 09:16 34.38979 -117.96603 18908 ft 355 kts 53°
2026-05-06 09:17 34.40512 -117.94089 18948 ft 385 kts 53°
2026-05-06 09:17 34.42138 -117.91419 18944 ft 399 kts 53°
2026-05-06 09:17 34.43771 -117.88734 18951 ft 398 kts 53°
2026-05-06 09:17 34.45420 -117.86022 18954 ft 397 kts 53°
2026-05-06 09:18 34.46972 -117.83298 18955 ft 396 kts 60°
2026-05-06 09:18 34.48001 -117.80207 18949 ft 397 kts 75°
2026-05-06 09:18 34.48306 -117.76868 18945 ft 397 kts 91°
2026-05-06 09:18 34.47859 -117.73575 18944 ft 398 kts 107°
2026-05-06 09:19 34.46758 -117.70548 18938 ft 399 kts 118°
2026-05-06 09:19 34.45388 -117.67589 18944 ft 399 kts 119°
2026-05-06 09:19 34.44027 -117.64645 18940 ft 399 kts 119°
2026-05-06 09:19 34.42690 -117.61748 18943 ft 399 kts 119°
2026-05-06 09:20 34.41332 -117.58810 18948 ft 399 kts 119°
2026-05-06 09:20 34.39971 -117.55867 18946 ft 399 kts 119°
2026-05-06 09:20 34.38616 -117.52938 18945 ft 399 kts 119°
2026-05-06 09:20 34.37270 -117.50030 18953 ft 399 kts 119°
2026-05-06 09:21 34.35912 -117.47100 18951 ft 399 kts 119°
2026-05-06 09:21 34.34552 -117.44166 18955 ft 399 kts 119°
2026-05-06 09:21 34.33187 -117.41225 18952 ft 399 kts 119°
2026-05-06 09:21 34.31833 -117.38306 18957 ft 399 kts 119°
2026-05-06 09:22 34.30471 -117.35374 18957 ft 399 kts 119°
2026-05-06 09:22 34.29114 -117.32453 18955 ft 400 kts 120°
2026-05-06 09:22 34.27764 -117.29549 18954 ft 400 kts 120°
2026-05-06 09:22 34.26382 -117.26575 18963 ft 400 kts 120°
2026-05-06 09:23 34.25015 -117.23637 18963 ft 401 kts 120°
2026-05-06 09:23 34.23656 -117.20730 18959 ft 400 kts 120°
2026-05-06 09:23 34.22290 -117.17808 18952 ft 400 kts 120°
2026-05-06 09:23 34.20924 -117.14883 18962 ft 400 kts 120°
2026-05-06 09:24 34.19546 -117.11935 18955 ft 401 kts 120°
2026-05-06 09:24 34.18179 -117.09010 18974 ft 400 kts 120°
2026-05-06 09:24 34.16807 -117.06080 18960 ft 401 kts 120°
2026-05-06 09:24 34.15437 -117.03154 18958 ft 400 kts 120°
2026-05-06 09:25 34.14072 -117.00244 18945 ft 400 kts 120°
2026-05-06 09:25 34.12692 -116.97301 18952 ft 400 kts 120°
2026-05-06 09:25 34.11324 -116.94387 18951 ft 399 kts 120°
2026-05-06 09:25 34.09980 -116.91528 18697 ft 385 kts 120°
2026-05-06 09:26 34.08681 -116.88764 18245 ft 375 kts 120°
2026-05-06 09:26 34.07399 -116.86039 17775 ft 367 kts 120°
2026-05-06 09:26 34.06155 -116.83395 17311 ft 359 kts 120°
2026-05-06 09:26 34.04933 -116.80802 16843 ft 353 kts 120°
2026-05-06 09:27 34.03726 -116.78242 16377 ft 347 kts 120°
2026-05-06 09:27 34.02548 -116.75745 15920 ft 342 kts 120°
2026-05-06 09:27 34.01374 -116.73261 15459 ft 337 kts 120°
2026-05-06 09:27 34.00225 -116.70829 15028 ft 332 kts 120°
2026-05-06 09:28 33.99095 -116.68442 14593 ft 328 kts 120°
2026-05-06 09:28 33.97968 -116.66061 14169 ft 324 kts 120°
2026-05-06 09:28 33.96860 -116.63722 13741 ft 320 kts 120°
2026-05-06 09:28 33.95765 -116.61411 13321 ft 316 kts 120°
2026-05-06 09:29 33.94690 -116.59145 12897 ft 313 kts 120°
2026-05-06 09:29 33.93620 -116.56892 12475 ft 310 kts 120°
2026-05-06 09:29 33.92558 -116.54656 12069 ft 307 kts 120°
2026-05-06 09:29 33.91501 -116.52432 11655 ft 304 kts 120°
2026-05-06 09:30 33.90453 -116.50228 11238 ft 302 kts 120°
2026-05-06 09:30 33.89415 -116.48047 10849 ft 299 kts 120°
2026-05-06 09:30 33.88379 -116.45871 10444 ft 297 kts 121°
2026-05-06 09:30 33.87360 -116.43729 10059 ft 294 kts 120°
2026-05-06 09:31 33.86449 -116.41529 9663 ft 291 kts 115°
2026-05-06 09:31 33.85619 -116.39329 9280 ft 288 kts 115°
2026-05-06 09:31 33.84789 -116.37138 8907 ft 284 kts 115°
2026-05-06 09:31 33.83984 -116.35013 8534 ft 282 kts 115°
2026-05-06 09:32 33.83175 -116.32880 8128 ft 275 kts 115°
2026-05-06 09:32 33.82396 -116.30824 7780 ft 264 kts 116°
2026-05-06 09:32 33.81649 -116.28856 7459 ft 254 kts 115°
2026-05-06 09:32 33.80920 -116.26937 7121 ft 247 kts 115°
2026-05-06 09:33 33.80032 -116.25200 6819 ft 244 kts 133°
2026-05-06 09:33 33.78730 -116.23956 6497 ft 232 kts 154°
2026-05-06 09:33 33.77264 -116.23373 6169 ft 219 kts 174°
2026-05-06 09:33 33.75782 -116.23370 5865 ft 207 kts 192°
2026-05-06 09:34 33.74445 -116.23869 5610 ft 194 kts 209°
2026-05-06 09:34 33.73345 -116.24761 5308 ft 187 kts 225°
2026-05-06 09:34 33.72528 -116.25922 5109 ft 183 kts 239°
2026-05-06 09:34 33.71899 -116.27252 4843 ft 180 kts 248°
2026-05-06 09:35 33.71482 -116.28635 4623 ft 172 kts 256°
2026-05-06 09:35 33.71227 -116.30032 4408 ft 174 kts 263°
2026-05-06 09:35 33.71121 -116.31487 4170 ft 174 kts 269°
2026-05-06 09:35 33.71175 -116.32934 3947 ft 175 kts 277°
2026-05-06 09:36 33.71391 -116.34386 3714 ft 174 kts 284°
2026-05-06 09:36 33.71763 -116.35774 3480 ft 175 kts 292°
2026-05-06 09:36 33.72241 -116.37104 3241 ft 174 kts 294°
2026-05-06 09:36 33.72731 -116.38438 3028 ft 173 kts 294°
2026-05-06 09:37 33.73202 -116.39725 2819 ft 165 kts 294°
2026-05-06 09:37 33.73649 -116.40942 2605 ft 153 kts 294°
2026-05-06 09:37 33.74088 -116.42036 2420 ft 138 kts 301°
2026-05-06 09:37 33.74698 -116.42894 2210 ft 133 kts 318°
2026-05-06 09:38 33.75405 -116.43594 2026 ft 131 kts 321°
2026-05-06 09:38 33.76115 -116.44282 1859 ft 131 kts 321°
2026-05-06 09:38 33.76828 -116.44966 1692 ft 130 kts 321°
2026-05-06 09:38 33.77541 -116.45647 1522 ft 131 kts 321°
2026-05-06 09:39 33.78247 -116.46322 1349 ft 130 kts 321°
2026-05-06 09:39 33.78969 -116.47012 1172 ft 131 kts 320°
2026-05-06 09:39 33.79680 -116.47691 989 ft 131 kts 322°
2026-05-06 09:39 33.80436 -116.48350 826 ft 135 kts 324°
2026-05-06 09:40 33.81200 -116.49024 633 ft 142 kts 323°
2026-05-06 09:40 33.81956 -116.49783 499 ft 138 kts 310°
2026-05-06 09:40 33.83249 -116.51023 445 ft 87 kts 327°
2026-05-06 09:41 33.83580 -116.51317 458 ft 33 kts 323°
2026-05-06 09:41 33.83664 -116.51419 462 ft 11 kts 256°
2026-05-06 09:41 33.83601 -116.51493 461 ft 15 kts 192°
2026-05-06 09:41 33.83515 -116.51460 458 ft 13 kts 145°
2026-05-06 09:42 33.83414 -116.51378 454 ft 20 kts 144°
2026-05-06 09:42 33.83285 -116.51260 449 ft 25 kts 144°
2026-05-06 09:42 33.83136 -116.51130 444 ft 27 kts 144°
2026-05-06 09:42 33.82997 -116.51006 440 ft 19 kts 143°
2026-05-06 09:43 33.82904 -116.50929 437 ft 9 kts 154°
2026-05-06 09:43 33.82830 -116.50932 436 ft 8 kts 186°
2026-05-06 09:43 33.82796 -116.50933 435 ft 0 kts 178°